Location: Manosque
(43.8357°N, 5.7909°E)
Time: 14:41:40
(UTC+02:00)

Tiangong 1 - Pass Details

Date: 31 March 2018
Orbit: 144 x 152 km, 42.7° (Epoch: 01 April)

Event Time Altitude Azimuth Distance (km) Brightness Sun altitude
Rises 08:51:47 0° 267° (W) 1,497 3.4 15.6°
Reaches altitude 10° 08:53:30 10° 263° (W) 755 2.0 15.9°
Maximum altitude 08:55:09 58° 182° (S) 205 0.0 16.2°
Drops below altitude 10° 08:56:48 10° 101° (E) 757 5.5 16.5°
Sets 08:58:32 0° 97° (E) 1,505 5.9 16.8°
